When you browse on this site, cookies collect data to enhance your experience and personalize the content and advertising you see.
Visit our Privacy Policy to learn more. By continuing to use the site, you agree to this use of cookies and data.
  • Em Portugal
  • Lista de países
  • Para 7 dias
  • Temperatura da água
  • Mapas de satélite
  • Mapa do tempo
  • Widgets de tempo
  • user-avatar
    Iniciar Sessão

    Previsão horária em Slavyansk

    Hoje, 12 Dezembro, Quarta-feira

    Tempo Temperatura Precipitação Vento Pressão Humidade
    00:00 -1°C° 0.5 mm 7 m/s 748 mmHg 93%
    01:00 -1°C° 0.2 mm 7 m/s 748 mmHg 93%
    02:00 +1°C° 0.2 mm 6 m/s 747 mmHg 93%
    03:00 -1°C° 0 mm 6 m/s 747 mmHg 93%
    04:00 -1°C° 0.1 mm 6 m/s 747 mmHg 93%
    05:00 +1°C° 0.1 mm 6 m/s 746 mmHg 93%
    06:00 0°C° 0.1 mm 7 m/s 746 mmHg 94%
    07:00 0°C° 0.3 mm 7 m/s 746 mmHg 93%
    08:00 0°C° 0.3 mm 7 m/s 746 mmHg 93%
    09:00 +2°C° 0 mm 6 m/s 746 mmHg 93%
    10:00 +2°C° 0.3 mm 6 m/s 746 mmHg 92%
    11:00 +2°C° 0.3 mm 6 m/s 746 mmHg 92%
    12:00 +2°C° 0.3 mm 6 m/s 746 mmHg 91%
    13:00 +2°C° 0.3 mm 6 m/s 746 mmHg 92%
    14:00 +2°C° 0.3 mm 6 m/s 746 mmHg 92%
    15:00 +2°C° 0.3 mm 5 m/s 746 mmHg 92%
    16:00 +2°C° 0.1 mm 5 m/s 747 mmHg 92%
    17:00 +2°C° 0.1 mm 5 m/s 747 mmHg 91%
    18:00 +1°C° 0.1 mm 5 m/s 748 mmHg 91%
    19:00 +1°C° 0 mm 5 m/s 748 mmHg 91%
    20:00 +1°C° 0 mm 5 m/s 749 mmHg 90%
    21:00 +1°C° 0 mm 5 m/s 749 mmHg 90%
    22:00 0°C° 0 mm 5 m/s 750 mmHg 89%
    23:00 0°C° 0 mm 4 m/s 750 mmHg 89%

    Amanhã, 13 Dezembro, Quinta-feira

    Tempo Temperatura Precipitação Vento Pressão Humidade
    00:00 0°C° 0 mm 4 m/s 751 mmHg 88%
    01:00 0°C° 0 mm 4 m/s 751 mmHg 88%
    02:00 0°C° 0 mm 4 m/s 752 mmHg 87%
    03:00 -1°C° 0 mm 4 m/s 752 mmHg 87%
    04:00 -1°C° 0 mm 4 m/s 753 mmHg 87%
    05:00 -1°C° 0 mm 4 m/s 753 mmHg 87%
    06:00 -1°C° 0 mm 4 m/s 754 mmHg 87%
    07:00 -1°C° 0 mm 4 m/s 754 mmHg 88%
    08:00 -1°C° 0 mm 4 m/s 755 mmHg 88%
    09:00 -2°C° 0 mm 4 m/s 755 mmHg 89%
    10:00 -1°C° 0 mm 4 m/s 756 mmHg 85%
    11:00 -1°C° 0 mm 4 m/s 756 mmHg 82%
    12:00 0°C° 0 mm 4 m/s 757 mmHg 79%
    13:00 0°C° 0 mm 4 m/s 757 mmHg 79%
    14:00 0°C° 0 mm 4 m/s 757 mmHg 78%
    15:00 0°C° 0 mm 4 m/s 758 mmHg 77%
    16:00 +1°C° 0 mm 3 m/s 758 mmHg 78%
    17:00 +1°C° 0 mm 3 m/s 758 mmHg 79%
    18:00 +1°C° 0 mm 2 m/s 759 mmHg 80%
    19:00 +1°C° 0 mm 2 m/s 759 mmHg 81%
    20:00 +1°C° 0 mm 2 m/s 759 mmHg 82%
    21:00 +1°C° 0 mm 2 m/s 760 mmHg 82%
    22:00 -1°C° 0 mm 2 m/s 760 mmHg 83%
    23:00 -1°C° 0 mm 2 m/s 760 mmHg 84%

    Depois de amanhã, 14 Dezembro, Sexta-feira

    Tempo Temperatura Precipitação Vento Pressão Humidade
    00:00 -1°C° 0 mm 3 m/s 760 mmHg 85%
    01:00 -1°C° 0 mm 3 m/s 760 mmHg 85%
    02:00 -1°C° 0 mm 3 m/s 761 mmHg 86%
    03:00 -1°C° 0 mm 3 m/s 761 mmHg 87%
    04:00 -1°C° 0 mm 3 m/s 761 mmHg 88%
    05:00 -1°C° 0 mm 3 m/s 761 mmHg 89%
    06:00 -1°C° 0 mm 2 m/s 761 mmHg 90%
    07:00 -1°C° 0 mm 2 m/s 761 mmHg 90%
    08:00 -1°C° 0 mm 2 m/s 761 mmHg 90%
    09:00 -1°C° 0 mm 2 m/s 762 mmHg 90%
    10:00 +1°C° 0 mm 2 m/s 762 mmHg 86%
    11:00 +2°C° 0 mm 2 m/s 762 mmHg 83%
    12:00 +3°C° 0 mm 2 m/s 762 mmHg 79%
    13:00 +4°C° 0 mm 1 m/s 762 mmHg 80%
    14:00 +4°C° 0 mm 1 m/s 762 mmHg 80%
    15:00 +3°C° 0 mm 0 m/s 762 mmHg 80%
    16:00 +2°C° 0 mm 0 m/s 762 mmHg 82%
    17:00 +1°C° 0 mm 0 m/s 762 mmHg 85%
    18:00 +1°C° 0 mm 0 m/s 763 mmHg 87%
    19:00 0°C° 0 mm 0 m/s 763 mmHg 88%
    20:00 0°C° 0 mm 0 m/s 763 mmHg 88%
    21:00 0°C° 0 mm 0 m/s 763 mmHg 89%
    22:00 0°C° 0 mm 0 m/s 764 mmHg 89%
    23:00 0°C° 0 mm 0 m/s 764 mmHg 89%

    15 Dezembro, Sábado

    Tempo Temperatura Precipitação Vento Pressão Humidade
    00:00 0°C° 0 mm 0 m/s 764 mmHg 89%
    01:00 0°C° 0 mm 0 m/s 764 mmHg 89%
    02:00 0°C° 0 mm 0 m/s 764 mmHg 90%
    03:00 0°C° 0 mm 0 m/s 764 mmHg 90%
    04:00 +1°C° 0 mm 1 m/s 764 mmHg 90%
    05:00 0°C° 0 mm 1 m/s 764 mmHg 90%
    06:00 0°C° 0 mm 1 m/s 764 mmHg 91%
    07:00 0°C° 0 mm 1 m/s 765 mmHg 90%
    08:00 0°C° 0 mm 1 m/s 765 mmHg 90%
    09:00 0°C° 0 mm 1 m/s 765 mmHg 90%
    10:00 +1°C° 0 mm 1 m/s 765 mmHg 86%
    11:00 +2°C° 0 mm 1 m/s 765 mmHg 82%
    12:00 +2°C° 0 mm 1 m/s 766 mmHg 78%
    13:00 +2°C° 0 mm 1 m/s 766 mmHg 78%
    14:00 +1°C° 0 mm 2 m/s 766 mmHg 78%
    15:00 +1°C° 0 mm 2 m/s 766 mmHg 78%
    16:00 -1°C° 0 mm 2 m/s 766 mmHg 82%
    17:00 -1°C° 0 mm 2 m/s 766 mmHg 85%
    18:00 -2°C° 0 mm 2 m/s 766 mmHg 89%
    19:00 -2°C° 0 mm 2 m/s 767 mmHg 88%
    20:00 -2°C° 0 mm 2 m/s 767 mmHg 87%
    21:00 -3°C° 0 mm 2 m/s 767 mmHg 87%
    22:00 -3°C° 0 mm 2 m/s 767 mmHg 86%
    23:00 -2°C° 0 mm 2 m/s 767 mmHg 86%

    16 Dezembro, Domingo

    Tempo Temperatura Precipitação Vento Pressão Humidade
    00:00 -2°C° 0 mm 2 m/s 767 mmHg 85%
    01:00 -3°C° 0 mm 2 m/s 767 mmHg 85%
    02:00 -3°C° 0 mm 2 m/s 767 mmHg 86%
    03:00 -3°C° 0 mm 2 m/s 767 mmHg 86%
    04:00 -3°C° 0 mm 2 m/s 767 mmHg 87%
    05:00 -4°C° 0 mm 3 m/s 767 mmHg 87%
    06:00 -4°C° 0 mm 3 m/s 767 mmHg 88%
    07:00 -4°C° 0 mm 3 m/s 768 mmHg 87%
    08:00 -2°C° 0 mm 3 m/s 768 mmHg 86%
    09:00 -2°C° 0 mm 3 m/s 768 mmHg 85%
    10:00 -2°C° 0 mm 3 m/s 768 mmHg 83%
    11:00 -2°C° 0 mm 3 m/s 768 mmHg 81%
    12:00 -1°C° 0 mm 3 m/s 768 mmHg 79%
    13:00 -1°C° 0 mm 3 m/s 768 mmHg 78%
    14:00 -2°C° 0 mm 4 m/s 768 mmHg 78%
    15:00 -2°C° 0 mm 4 m/s 768 mmHg 78%
    16:00 -3°C° 0 mm 4 m/s 768 mmHg 79%
    17:00 -3°C° 0 mm 4 m/s 768 mmHg 80%
    18:00 -3°C° 0 mm 4 m/s 768 mmHg 81%
    19:00 -3°C° 0 mm 4 m/s 768 mmHg 81%
    20:00 -3°C° 0 mm 4 m/s 768 mmHg 82%
    21:00 -4°C° 0 mm 4 m/s 768 mmHg 83%
    22:00 -4°C° 0 mm 4 m/s 768 mmHg 83%
    23:00 -4°C° 0 mm 4 m/s 768 mmHg 83%

    17 Dezembro, Segunda-feira

    Tempo Temperatura Precipitação Vento Pressão Humidade
    00:00 -4°C° 0 mm 4 m/s 768 mmHg 84%
    01:00 -4°C° 0 mm 4 m/s 768 mmHg 84%
    02:00 -4°C° 0 mm 4 m/s 768 mmHg 84%
    03:00 -5°C° 0 mm 4 m/s 768 mmHg 84%
    04:00 -5°C° 0.1 mm 4 m/s 768 mmHg 84%
    05:00 -5°C° 0.1 mm 4 m/s 767 mmHg 85%
    06:00 -5°C° 0.1 mm 4 m/s 767 mmHg 85%
    07:00 -5°C° 0.1 mm 4 m/s 767 mmHg 85%
    08:00 -5°C° 0.1 mm 4 m/s 767 mmHg 85%
    09:00 -7°C° 0.1 mm 4 m/s 767 mmHg 85%
    10:00 -5°C° 0.1 mm 4 m/s 767 mmHg 83%
    11:00 -5°C° 0.1 mm 4 m/s 767 mmHg 81%
    12:00 -5°C° 0.1 mm 4 m/s 767 mmHg 80%
    13:00 -5°C° 0.1 mm 4 m/s 767 mmHg 81%
    14:00 -5°C° 0.1 mm 4 m/s 766 mmHg 81%
    15:00 -5°C° 0.1 mm 4 m/s 766 mmHg 82%
    16:00 -5°C° 0.2 mm 4 m/s 766 mmHg 83%
    17:00 -7°C° 0.2 mm 4 m/s 766 mmHg 84%
    18:00 -7°C° 0.2 mm 4 m/s 766 mmHg 85%
    19:00 -7°C° 0.1 mm 4 m/s 766 mmHg 84%
    20:00 -7°C° 0.1 mm 4 m/s 766 mmHg 83%
    21:00 -7°C° 0.1 mm 4 m/s 766 mmHg 83%
    22:00 -7°C° 0 mm 4 m/s 766 mmHg 83%
    23:00 -7°C° 0 mm 4 m/s 766 mmHg 83%
    Mostrar mais